COSMOS 1275 DEB, 39945

Orbit data source: Space-Track

COSMOS 1275 DEB, 39945 is space debris in LEO originally from a launch on Thu, 04 Jun 1981 UTC launched from the Plesetsk Missile And Space Complex (PKMTR). Debris objects in space refer to the collection of defunct objects orbiting the Earth. Examples of debris include non-operational satellites, rocket bodies, and fragments generated from explosions, collisions, or faulty payload assembly.

Loading next visibility...
Identifier
39945, 1981-053NF
Orbit
LEO
Country
Flag of CISCIS
Related business
Manufacturer
Unknown
Mission
Spacecraft
Bus & Motor
Unknown
Mass
Unknown
Launch date (UTC)
1981-06-04 (45 years ago)
Launch vehicle
Unknown
Launch site
Plesetsk Missile And Space Complex (PKMTR)
Object type
Payload
Rocket body
Debris
Shape & HBR
Unknown shape, 0.1 m
Radar Cross Section
Medium (>0.1 m² and <1 m²)

Expand to show TLE details & history
Last TLE update: 2 days ago

TLE from 2 days ago
0 COSMOS 1275 DEB
1 39945U 81053NF  26205.68606093  .00000278  00000-0  24974-3 0  9996
2 39945  82.9535 180.7836 0037339 250.3617 285.8373 13.80531285610937
Epoch: 2026-07-24T16:27Z
TLE epoch observation values (Epoch: 2026-07-24T16:27:55.664Z)
Latitude
4.09102°
Longitude
170.88862°
Altitude
957.087 km
Speed
7.377 km/s
True Right ascension
00h 01m 07s
True Declination
4° 04' 02"
Sunlit
Object was in partial shadow at epoch
Visualization orbit readout
Latitude
Unknown
Longitude
Unknown
Altitude
Unknown
Speed
Unknown
Apparent Right ascension
Unknown
Apparent Declination
Unknown
Sunlit
N/A
Visualization observer readout
Local Sidereal Time
00:10:51
Azimuth
Unknown
Elevation
Unknown
Doppler factor
Unknown
Orbital elements
Apogee altitude
986.54 km
Perigee altitude
931.747 km
Semi-major axis
7,337.281 km
Eccentricity
0.00373
Inclination
82.9535°
RAAN
180.7836°
Arg. of periapsis
250.3617°
True anomaly
285.42515°
Mean anomaly
285.8373°
Eccentric anomaly
285.63128°
Mean motion
3.45335 °/min
Orbital period
104.25 mins
BSTAR
0.00024974
Loading maneuver chart data...
Computing Atmospheric mass density...
Loading historical data...
Loading historical data...
Loading historical data...
Loading historical data...
Loading historical data...
Loading historical data...
Loading historical data...

Documentation

Showing up to 5 results
|